GSAT0223 (GALILEO 27)

Last updated on Sat Sep 19 2026 00:02:49 GMT+0000 (Coordinated Universal Time)

1 49809U 21116A 26261.26034940 -.00000095 00000+0 00000+0 0 9999 2 49809 57.1228 339.1611 0003928 222.0654 138.9707 1.70476661 29772
UTC large
Height (km)
Speed (km/s)
/
Latitude / Longitude
Inclination (degrees)
Orbital Period (minutes)
Azimuth
Elevation
Range (km)
Doppler Factor

Next 0 passes for location: London (51.5072 / 0.1276)

No passes found over London.